STARLINK-32331, 61623

Orbit data source: Space-Track

STARLINK-32331, 61623 is a payload satellite owned by SpaceX/Seattle (US) in LEO that was launched on Wed, 23 Oct 2024 UTC via an FALCON 9 launch vehicle from the Air Force Eastern Test Range (AFETR). Payload-class satellites include a variety of spacecraft equipped with specific instruments for various scientific and technological missions. These include communications satellites like Starlink; space stations such as the ISS; scientific satellites like the Hubble; Earth observation satellites from companies like Planet Labs, Umbra, and HawkEye 360; GPS; miniature CubeSats for education and research; and military/defense satellites.

Loading next visibility...
Identifier
61623, 2024-191C
Orbit
LEO
Country
Flag of USUS
Related business
Manufacturer
SpaceX/Seattle
Mission
Operational Commercial Communications
Bus & Motor
STARLINK V2M, Unknown motor
Mass
730 kg wet, ~700 kg dry
Launch date (UTC)
2024-10-23 (1 year ago)
Launch vehicle
FALCON 9
Launch site
Air Force Eastern Test Range (AFETR)
Object type
Payload
Rocket body
Debris
Shape & HBR
Box + 2 Pan, 17.7 m
Radar Cross Section
33.884 m², Large (>1 m²)

Expand to show TLE details & history
Last TLE update: 20 hours ago

TLE from 20 hours ago
0 STARLINK-32331
1 61623U 24191C   25303.62088028 -.00009634  00000-0 -34057-3 0  9998
2 61623  42.9971 172.5720 0000509 320.3936  39.6878 15.27623510 57607
Epoch: 2025-10-30T14:54Z
TLE epoch observation values (Epoch: 2025-10-30T14:54:04.056Z)
Latitude
-0.00003°
Longitude
-90.12198°
Altitude
482.425 km
Speed
7.626 km/s
True Right ascension
11h 30m 17s
True Declination
0° 00' 00"
Sunlit
Object was in daylight at epoch
Visualization orbit readout
Latitude
Unknown
Longitude
Unknown
Altitude
Unknown
Speed
Unknown
Apparent Right ascension
Unknown
Apparent Declination
Unknown
Sunlit
N/A
Visualization observer readout
Local Sidereal Time
06:12:19
Azimuth
Unknown
Elevation
Unknown
Doppler factor
Unknown
Orbital elements
Apogee altitude
485.214 km
Perigee altitude
484.515 km
Semi-major axis
6,863.002 km
Eccentricity
0.00005
Inclination
42.9971°
RAAN
172.572°
Arg. of periapsis
320.3936°
True anomaly
39.69152°
Mean anomaly
39.6878°
Eccentric anomaly
39.68966°
Mean motion
3.81744 °/min
Orbital period
94.3 mins
BSTAR
-0.00034057
Loading maneuver chart data...
Computing Atmospheric mass density...
Loading historical data...
Loading historical data...
Loading historical data...
Loading historical data...
Loading historical data...
Loading historical data...
Loading historical data...

Documentation

Showing up to 5 results
|